LFLSLIMF

Guest
Details From LFLS - St Geoirs
To LIMF - Torino Caselle
Flight Number -
Tags generated
Created
Modified
Stats Distance 99 nm / 183 km
Max Altitude 9,200 ft / 2,804 m
Waypoints 3
Social Downloads 1
Likes 0
Share VATSIM

Download

Looking for another format? Having issues loading an existing format? Contact us
Advertisement - Login to hide

Notes

Basic altitude profile: - Ascent Rate: 2500ft/min - Ascent Speed: 250kts - Cruise Altitude: 35000ft - Cruise Speed: 420kts - Descent Rate: 1500ft/min - Descent Speed: 250kts Options: - Use NATs: yes - Use PACOTS: yes - Use low airways: yes - Use high airways: yes

Route

LFLS AMVAR LIMF

ID Type Via Altitude Latitude Longitude Leg Dist Tot Dist Heading (true) Name
O LFLS APT - 0 ft / 0 m 45.36118˚ 5.32753˚ - 0 nm - St Geoirs
AMVAR FIX - 9,200 ft / 2,804 m 45.33056˚ 5.93722˚ 25 nm 25 nm 94° / 94° -
O LIMF APT - 0 ft / 0 m 45.20076˚ 7.64963˚ 72 nm 98 nm 96° / 97° Torino Caselle

Altitude Profile

Advertisement - Login to hide

LFLS

Details ICAO LFLS (GNB)
Name St Geoirs
Region France
Timezone Europe/Paris (UTC+2.0)
Stats Elevation 1,302 ft / 397 m (AMSL)
Location 45.361183° 5.327528°
Runways 3
Magnetic Variation 1.606° E

METAR

LFLS 202200Z AUTO 07006KT CAVOK 13/11 Q1015

Decode

TAF

TAF LFLS 201907Z 2019/2115 CNL

Decode

Departure Runways

ID Width Length Bearing (true) Bearing (mag) Surface Threshold Offset Overrun Length
09 148 ft / 45 m 9,979 ft / 3,042 m 90.22° 88.61° Asphalt 0 ft / 0 m 0 ft / 0 m
09R 102 ft / 31 m 2,951 ft / 899 m 90.20° 88.59° Grass 0 ft / 0 m 0 ft / 0 m
16 82 ft / 25 m 1,640 ft / 500 m 160.10° 158.49° Grass 0 ft / 0 m 0 ft / 0 m
27 148 ft / 45 m 9,979 ft / 3,042 m 270.24° 268.63° Asphalt 0 ft / 0 m 0 ft / 0 m
27L 102 ft / 31 m 2,951 ft / 899 m 270.20° 268.59° Grass 0 ft / 0 m 0 ft / 0 m
34 82 ft / 25 m 1,640 ft / 500 m 340.10° 338.49° Grass 0 ft / 0 m 0 ft / 0 m

LIMF

Details ICAO LIMF (TRN)
Name Torino Caselle
Region Italy
Timezone Europe/Rome (UTC+2.0)
Stats Elevation 989 ft / 301 m (AMSL)
Location 45.200763° 7.649630°
Runways 1
Magnetic Variation 2.172° E

METAR

LIMF 202150Z 33006KT 9999 -TSRA BKN035CB 16/14 Q1018

Decode

TAF

TAF LIMF 201700Z 2018/2118 VRB05KT 9999 BKN050 TEMPO 2018/2106 4000 TSRA

Decode

Destination Runways

ID Width Length Bearing (true) Bearing (mag) Surface Threshold Offset Overrun Length
18 197 ft / 60 m 10,835 ft / 3,303 m 182.56° 180.39° Asphalt 2,378 ft / 725 m 970 ft / 296 m
36 197 ft / 60 m 10,835 ft / 3,303 m 2.56° 0.39° Asphalt 1,148 ft / 350 m 0 ft / 0 m

Approach Navaids

Runway Type Ident Frequency Range Bearing (true) Bearing (mag) Slope Elevation
36 Localiser ITOC 108.70 MHz 18 nm / 33 km 2.56° 0.39° - 989 ft / 301 m (AMSL)
36 Glidescope ITOC 108.70 MHz 10 nm / 19 km 2.56° 0.39° 3.00° 989 ft / 301 m (AMSL)
36 DME ITOC 108.70 MHz 25 nm / 46 km - - - 989 ft / 301 m (AMSL)